Weather History for KFGN - January, 2012

Change the Weather History Date:

Wednesday, January 25, 2012

  Actual Average Record
Temperature  
Mean Temperature 19 °F -  
Max Temperature 28 °F 9 °F 28 °F (2012)
Min Temperature 10 °F -1 °F -25 °F (1997)
Degree Days  
Heating Degree Days 46    
Moisture  
Dew Point 18 °F    
Average Humidity 93    
Maximum Humidity 100    
Minimum Humidity 85    
Precipitation  
Precipitation 0.00 in - - ()
Sea Level Pressure  
Sea Level Pressure 29.85 in    
Wind  
Wind Speed 13 mph (SSE)    
Max Wind Speed 26 mph    
Max Gust Speed -    
Visibility 5 miles    
Events Snow    
Averages and records for this station are not official NWS values.
T = Trace of Precipitation, MM = Missing Value Source: NWS Daily Summary

Daily Weather History Graph

Daily Weather History Graph

Search for Another Location

Airport or City:

Trip Planner

Search our weather history database for the weather conditions in past years. The results will help you decide how hot, cold, wet, or windy it might be!

Date:

Astronomy

Jan. 25, 2012 Rise Set
Actual Time 8:00 AM CST 5:03 PM CST
Civil Twilight 7:25 AM CST 5:38 PM CST
Nautical Twilight 6:46 AM CST 6:17 PM CST
Astronomical Twilight 6:08 AM CST 6:55 PM CST
Moon 8:41 AM CST (1/25) 8:19 PM CST (1/25)
Length of Visible Light 10h 13m
Length of Day
9h 03m
Waxing Crescent, 7% of the Moon is Illuminated
Jan 25
Waxing Crescent
Jan 30
First Quarter
Feb 7
Full
Feb 14
Last Quarter
Feb 21
New

Hourly Weather History & Observations

Time (CST) Temp. Windchill Dew Point Humidity Pressure Visibility Wind Dir Wind Speed Gust Speed Precip Events Conditions
12:13 AM 12.2 °F 2.9 °F 10.4 °F 92% 30.05 in 10.0 mi SSE 5.8 mph - N/A   Clear
12:34 AM 10.4 °F -0.4 °F 8.6 °F 92% 30.04 in 10.0 mi SSE 6.9 mph - N/A   Clear
12:53 AM 12.2 °F 1.7 °F 10.4 °F 92% 30.04 in 10.0 mi SSE 6.9 mph - N/A   Clear
1:13 AM 10.4 °F -1.5 °F 8.6 °F 92% 30.04 in 10.0 mi SSE 8.1 mph - N/A   Clear
1:34 AM 12.2 °F -1.8 °F 10.4 °F 92% 30.03 in 10.0 mi SSE 11.5 mph - N/A   Clear
1:53 AM 12.2 °F -1.8 °F 10.4 °F 92% 30.03 in 10.0 mi SSE 11.5 mph - N/A   Clear
2:14 AM 12.2 °F -1.8 °F 10.4 °F 92% 30.02 in 10.0 mi SSE 11.5 mph - N/A   Clear
2:33 AM 12.2 °F 0.7 °F 10.4 °F 92% 30.03 in 10.0 mi South 8.1 mph - N/A   Clear
2:54 AM 12.2 °F -1.0 °F 10.4 °F 92% 30.02 in 10.0 mi South 10.4 mph - N/A   Clear
3:13 AM 10.4 °F -1.5 °F 8.6 °F 92% 30.02 in 10.0 mi SSE 8.1 mph - N/A   Clear
3:33 AM 10.4 °F -0.4 °F 8.6 °F 92% 30.02 in 5.0 mi SSE 6.9 mph - N/A Snow Light Snow
3:53 AM 10.4 °F -2.4 °F 6.8 °F 85% 30.01 in 2.5 mi South 9.2 mph - N/A Snow Light Snow
4:13 AM 10.4 °F -1.5 °F 6.8 °F 85% 30.01 in 2.0 mi SSE 8.1 mph - N/A Snow Light Snow
4:33 AM 10.4 °F -2.4 °F 8.6 °F 92% 30.01 in 5.0 mi SSE 9.2 mph - N/A Snow Light Snow
4:54 AM 10.4 °F -2.4 °F 8.6 °F 92% 30.01 in 10.0 mi SSE 9.2 mph - N/A   Clear
5:13 AM 10.4 °F -3.3 °F 8.6 °F 92% 30.01 in 10.0 mi SSE 10.4 mph - N/A   Clear
5:33 AM 10.4 °F -3.3 °F 8.6 °F 92% 30.01 in 10.0 mi SSE 10.4 mph - N/A   Clear
5:54 AM 10.4 °F -3.3 °F 8.6 °F 92% 30.00 in 10.0 mi SSE 10.4 mph - N/A   Clear
6:13 AM 10.4 °F -4.1 °F 8.6 °F 92% 30.00 in 10.0 mi SSE 11.5 mph - N/A   Clear
6:33 AM 10.4 °F -3.3 °F 8.6 °F 92% 29.99 in 10.0 mi SSE 10.4 mph - N/A   Clear
6:54 AM 10.4 °F -4.8 °F 8.6 °F 92% 29.97 in 7.0 mi SSE 12.7 mph - N/A   Scattered Clouds
7:13 AM 10.4 °F -6.0 °F 8.6 °F 92% 29.96 in 2.5 mi SSE 15.0 mph - N/A   Mostly Cloudy
7:33 AM 12.2 °F -3.7 °F 10.4 °F 92% 29.95 in 1.8 mi SSE 15.0 mph - N/A   Overcast
7:54 AM 14.0 °F -2.0 °F 12.2 °F 93% 29.95 in 2.0 mi SSE 16.1 mph - N/A   Overcast
8:13 AM 15.8 °F 1.4 °F 12.2 °F 86% 29.93 in 1.2 mi SSE 13.8 mph - N/A   Overcast
8:33 AM 15.8 °F 1.4 °F 14.0 °F 93% 29.93 in 1.0 mi SSE 13.8 mph - N/A   Overcast
8:54 AM 17.6 °F 2.7 °F 15.8 °F 93% 29.92 in 1.2 mi SSE 16.1 mph - N/A   Overcast
9:13 AM 17.6 °F 3.2 °F 17.6 °F 100% 29.91 in 2.0 mi SSE 15.0 mph - N/A   Overcast
9:53 AM 19.4 °F 5.5 °F 17.6 °F 93% 29.90 in 3.0 mi SSE 15.0 mph - N/A   Overcast
10:13 AM 19.4 °F 5.0 °F 17.6 °F 93% 29.90 in 5.0 mi SSE 16.1 mph - N/A   Overcast
10:33 AM 21.2 °F 7.3 °F 19.4 °F 93% 29.89 in 5.0 mi SSE 16.1 mph - N/A   Overcast
10:54 AM 21.2 °F 6.4 °F 19.4 °F 93% 29.88 in 4.0 mi SSE 18.4 mph - N/A   Overcast
11:33 AM 21.2 °F 6.4 °F 21.2 °F 100% 29.85 in 3.0 mi SSE 18.4 mph - N/A   Overcast
11:54 AM 23.0 °F 9.2 °F 21.2 °F 93% 29.84 in 1.2 mi SSE 17.3 mph - N/A   Overcast
12:13 PM 24.8 °F 11.5 °F 23.0 °F 93% 29.83 in 2.5 mi SSE 17.3 mph - N/A   Overcast
12:33 PM 24.8 °F 11.1 °F 23.0 °F 93% 29.80 in 0.8 mi SSE 18.4 mph - N/A Snow Light Snow
12:53 PM 24.8 °F 11.5 °F 24.8 °F 100% 29.77 in 1.8 mi SSE 17.3 mph - N/A   Overcast
1:14 PM 26.6 °F 12.7 °F 26.6 °F 100% 29.75 in 2.5 mi SSE 20.7 mph - N/A   Overcast
2:14 PM 28.4 °F 13.8 °F 28.4 °F 100% 29.70 in 2.0 mi SSE 25.3 mph - N/A   Overcast
2:33 PM 28.4 °F 14.4 °F 26.6 °F 93% 29.71 in 3.0 mi SSE 23.0 mph - N/A   Overcast
2:53 PM 28.4 °F 14.7 °F 28.4 °F 100% 29.71 in 3.0 mi SSE 21.9 mph - N/A   Overcast
3:14 PM 28.4 °F 13.5 °F 26.6 °F 93% 29.70 in 3.0 mi SSE 26.5 mph - N/A   Overcast
3:33 PM 28.4 °F 14.1 °F 26.6 °F 93% 29.69 in 3.0 mi SSE 24.2 mph - N/A   Overcast
3:53 PM 28.4 °F 14.4 °F 26.6 °F 93% 29.66 in 4.0 mi SSE 23.0 mph - N/A   Overcast
4:14 PM 28.4 °F 14.1 °F 26.6 °F 93% 29.65 in 3.0 mi SSE 24.2 mph - N/A   Overcast
4:33 PM 28.4 °F 15.4 °F 26.6 °F 93% 29.68 in 7.0 mi South 19.6 mph - N/A   Mostly Cloudy
4:54 PM 28.4 °F 15.4 °F 26.6 °F 93% 29.65 in 7.0 mi SSE 19.6 mph - N/A   Mostly Cloudy
5:13 PM 28.4 °F 14.4 °F 26.6 °F 93% 29.63 in 5.0 mi SSE 23.0 mph - N/A   Mostly Cloudy
5:33 PM 28.4 °F 14.7 °F 26.6 °F 93% 29.62 in 7.0 mi SSE 21.9 mph - N/A   Mostly Cloudy
5:54 PM 28.4 °F 15.1 °F 26.6 °F 93% 29.62 in 7.0 mi SSE 20.7 mph - N/A   Mostly Cloudy
6:13 PM 28.4 °F 14.7 °F 26.6 °F 93% 29.61 in 7.0 mi SSE 21.9 mph - N/A   Overcast
6:33 PM 28.4 °F 15.1 °F 26.6 °F 93% 29.60 in 5.0 mi SSE 20.7 mph - N/A   Overcast
6:53 PM 28.4 °F 14.7 °F 26.6 °F 93% 29.60 in 5.0 mi SSE 21.9 mph - N/A   Overcast
7:13 PM 28.4 °F 14.1 °F 26.6 °F 93% 29.59 in 5.0 mi South 24.2 mph - N/A   Overcast
7:34 PM 28.4 °F 14.1 °F 26.6 °F 93% 29.59 in 4.0 mi South 24.2 mph - N/A   Overcast
7:53 PM 28.4 °F 14.4 °F 26.6 °F 93% 29.57 in 2.5 mi SSE 23.0 mph - N/A Snow Light Snow
8:13 PM 28.4 °F 14.1 °F 26.6 °F 93% 29.56 in 2.5 mi SSE 24.2 mph - N/A Snow Light Snow
8:34 PM 28.4 °F 14.7 °F 26.6 °F 93% 29.55 in 4.0 mi SSE 21.9 mph - N/A   Mostly Cloudy
8:53 PM 28.4 °F 15.1 °F 26.6 °F 93% 29.54 in 7.0 mi SSE 20.7 mph - N/A   Scattered Clouds
9:13 PM 28.4 °F 14.4 °F 24.8 °F 86% 29.52 in 5.0 mi SSE 23.0 mph - N/A   Scattered Clouds
9:34 PM 26.6 °F 12.0 °F 24.8 °F 93% 29.51 in 7.0 mi SSE 23.0 mph - N/A   Clear
9:53 PM 26.6 °F 12.4 °F 24.8 °F 93% 29.51 in 5.0 mi South 21.9 mph - N/A   Clear
10:13 PM 26.6 °F 12.7 °F 24.8 °F 93% 29.51 in 5.0 mi SSE 20.7 mph - N/A   Clear
10:33 PM 26.6 °F 12.4 °F 24.8 °F 93% 29.49 in 7.0 mi SSE 21.9 mph - N/A   Mostly Cloudy
10:53 PM 26.6 °F 12.7 °F 24.8 °F 93% 29.50 in 5.0 mi SSE 20.7 mph - N/A   Overcast
11:13 PM 26.6 °F 12.4 °F 24.8 °F 93% 29.50 in 5.0 mi South 21.9 mph - N/A   Overcast
11:34 PM 26.6 °F 13.4 °F 24.8 °F 93% 29.50 in 5.0 mi South 18.4 mph - N/A   Overcast
11:53 PM 26.6 °F 13.8 °F 24.8 °F 93% 29.49 in 5.0 mi South 17.3 mph - N/A   Overcast